TimeMDT,TemperatureF,Dew PointF,Humidity,Sea Level PressureIn,VisibilityMPH,Wind Direction,Wind SpeedMPH,Gust SpeedMPH,PrecipitationIn,Events,Conditions,WindDirDegrees,DateUTC
12:53 AM,28.0,10.0,47,29.85,10.0,NNE,25.3,35.7,N/A,,Partly Cloudy,20,2013-04-09 06:53:00
1:53 AM,28.0,9.0,45,29.86,10.0,NNE,24.2,41.4,N/A,,Overcast,30,2013-04-09 07:53:00
2:53 AM,27.0,9.0,47,29.89,10.0,NNE,18.4,31.1,N/A,,Mostly Cloudy,30,2013-04-09 08:53:00
3:53 AM,27.0,8.1,45,29.93,10.0,NNE,18.4,35.7,N/A,,Scattered Clouds,30,2013-04-09 09:53:00
4:53 AM,26.1,9.0,49,29.95,10.0,NNE,19.6,35.7,N/A,,Scattered Clouds,30,2013-04-09 10:53:00
5:53 AM,25.0,9.0,51,29.98,10.0,NNE,23.0,31.1,N/A,,Partly Cloudy,20,2013-04-09 11:53:00
6:53 AM,25.0,9.0,51,30.02,10.0,NNE,25.3,34.5,N/A,,Overcast,20,2013-04-09 12:53:00
7:53 AM,25.0,8.1,49,30.06,10.0,NNE,24.2,35.7,N/A,,Overcast,30,2013-04-09 13:53:00
8:53 AM,28.0,8.1,43,30.09,10.0,NNE,13.8,26.5,N/A,,Overcast,30,2013-04-09 14:53:00
9:53 AM,30.9,8.1,38,30.09,10.0,NE,23.0,32.2,N/A,,Overcast,40,2013-04-09 15:53:00
10:53 AM,33.1,9.0,37,30.09,10.0,NE,19.6,28.8,N/A,,Mostly Cloudy,40,2013-04-09 16:53:00
11:53 AM,37.9,10.0,32,30.07,10.0,NE,21.9,28.8,N/A,,Clear,40,2013-04-09 17:53:00
12:53 PM,39.9,10.0,29,30.06,10.0,NNE,19.6,32.2,N/A,,Clear,30,2013-04-09 18:53:00
1:53 PM,42.1,10.9,28,30.05,10.0,NE,13.8,18.4,N/A,,Clear,50,2013-04-09 19:53:00
2:53 PM,45.0,10.9,25,30.04,10.0,NE,16.1,23.0,N/A,,Clear,50,2013-04-09 20:53:00
3:53 PM,45.0,12.9,27,30.04,10.0,NE,16.1,23.0,N/A,,Partly Cloudy,50,2013-04-09 21:53:00
4:53 PM,46.9,16.0,29,30.04,10.0,NE,16.1,25.3,N/A,,Partly Cloudy,40,2013-04-09 22:53:00
5:53 PM,46.0,16.0,30,30.06,10.0,North,16.1,27.6,N/A,,Clear,360,2013-04-09 23:53:00
6:53 PM,44.1,16.0,32,30.07,10.0,North,15.0,25.3,N/A,,Clear,10,2013-04-10 00:53:00
7:53 PM,39.9,17.1,40,30.11,10.0,North,15.0,21.9,N/A,,Clear,10,2013-04-10 01:53:00
8:53 PM,37.0,16.0,42,30.14,10.0,North,11.5,20.7,N/A,,Clear,10,2013-04-10 02:53:00
9:53 PM,35.1,15.1,44,30.17,10.0,NNE,13.8,21.9,N/A,,Clear,20,2013-04-10 03:53:00
10:53 PM,32.0,17.1,54,30.19,10.0,East,5.8,-,N/A,,Clear,80,2013-04-10 04:53:00
11:53 PM,30.0,17.1,59,30.19,10.0,NE,5.8,-,N/A,,Clear,50,2013-04-10 05:53:00